Overview Statistics Trail Chart Weather Telemetry Raw packets
 

This is the latest recevied weather packets stored in our database for station/object IZ2PAG-10. If no packets are shown the sender has not sent any weather packets the latest 10 day(s).

<< 1 2 3 4 5 6 >>
Time Temp. Humidity Pressure Rain* Wind** Luminosity Snow
1788496802 26.67° C 50% 1021.3 hPa - - - -
1788495033 26.11° C 53% 1021.1 hPa - - - -
1788495002 26.11° C 53% 1021.1 hPa - - - -
1788493201 26.67° C 51% 1021.2 hPa - - - -
1788491401 26.67° C 51% 1021.1 hPa - - - -
1788489601 26.67° C 52% 1021.1 hPa - - - -
1788487801 26.67° C 50% 1021.1 hPa - - - -
1788486001 26.67° C 53% 1021.1 hPa - - - -
1788484260 26.67° C 51% 1021.2 hPa - - - -
1788484200 26.67° C 51% 1021.2 hPa - - - -
1788482514 26.67° C 51% 1021.3 hPa - - - -
1788482400 26.67° C 51% 1021.3 hPa - - - -
1788480746 26.67° C 52% 1021.4 hPa - - - -
1788480600 26.67° C 52% 1021.4 hPa - - - -
1788478800 26.67° C 50% 1021.6 hPa - - - -
1788476999 26.67° C 54% 1021.6 hPa - - - -
1788475199 26.67° C 51% 1021.7 hPa - - - -
1788473430 26.67° C 52% 1021.6 hPa - - - -
1788473425 26.67° C 52% 1021.6 hPa - - - -
1788471598 26.67° C 53% 1021.5 hPa - - - -
1788469833 26.67° C 51% 1021.5 hPa - - - -
1788469798 26.67° C 51% 1021.5 hPa - - - -
1788467997 26.67° C 51% 1021.3 hPa - - - -
1788466197 26.11° C 54% 1021.2 hPa - - - -
1788464397 26.67° C 53% 1020.9 hPa - - - -

* Rain since midnight (hover to see other rain measurements)
** Current wind speed in m/s (hover to see current wind gust speed)